Estación de La capilla

Ultimos registro cada 15 minutos 61
Estación Fecha / Hora Temperatura Humedad Lluvia Velocidad Dirección Radiación Presion
61 La capilla 04-05-2026 15:00 13,7 95 0 0 320 91 1089,1
60 La capilla 04-05-2026 14:45 13,7 97 0 0 320 113 1089,2
59 La capilla 04-05-2026 14:30 13,6 96 0 0 320 151 1089,3
58 La capilla 04-05-2026 14:15 13,7 97 0 0 321 128 1089,5
57 La capilla 04-05-2026 14:00 13,4 99 0 0 323 237 1089,5
56 La capilla 04-05-2026 13:45 13,1 99 0 0 323 160 1089,8
55 La capilla 04-05-2026 13:30 13,1 100 0 0,4 360 316 1090
54 La capilla 04-05-2026 13:15 12,9 100 0 0 360 193 1090,1
53 La capilla 04-05-2026 13:00 12,4 100 0 0 360 120 1090,1
52 La capilla 04-05-2026 12:45 12,4 100 0 0 360 111 1090,5
51 La capilla 04-05-2026 12:30 12,2 100 0 0 360 121 1090,7
50 La capilla 04-05-2026 12:15 11,8 100 0 0 360 132 1091
49 La capilla 04-05-2026 12:00 11,6 100 0 0 360 102 1091,1
48 La capilla 04-05-2026 11:45 11,3 100 0 0 360 114 1091,3
47 La capilla 04-05-2026 11:30 10,9 100 0 0 360 91 1091,2
46 La capilla 04-05-2026 11:15 10,7 100 0 0 360 77 1091,1
45 La capilla 04-05-2026 11:00 10,5 100 0 0 360 79 1091,4
44 La capilla 04-05-2026 10:45 10,3 100 0 0 360 54 1091,3
43 La capilla 04-05-2026 10:30 10,2 100 0 0 360 72 1091,1
42 La capilla 04-05-2026 10:15 10 100 0 0 360 56 1090,9
41 La capilla 04-05-2026 10:00 9,9 100 0 0 360 33 1091
40 La capilla 04-05-2026 09:45 9,8 100 0 0 360 35 1090,9
39 La capilla 04-05-2026 09:30 9,7 100 0 0 360 25 1090,7
38 La capilla 04-05-2026 09:15 9,7 100 0 0 360 19 1090,8
37 La capilla 04-05-2026 09:00 9,6 100 0 0 360 16 1090,6
36 La capilla 04-05-2026 08:45 9,5 100 0 0 360 18 1090,6
35 La capilla 04-05-2026 08:30 9,4 100 0 0 360 18 1090,3
34 La capilla 04-05-2026 08:15 9,2 100 0 0 360 11 1090,5
33 La capilla 04-05-2026 08:00 9,2 100 0 0 360 0 1090,3
32 La capilla 04-05-2026 07:45 9,2 100 0 0 360 0 1089,8
31 La capilla 04-05-2026 07:30 9,2 100 0 0 360 0 1089,6
30 La capilla 04-05-2026 07:15 9,1 100 0 0 360 0 1089,7
29 La capilla 04-05-2026 07:00 9,1 100 0 0 360 0 1089,8
28 La capilla 04-05-2026 06:45 9,1 99 0 0 360 0 1089,7
27 La capilla 04-05-2026 06:30 9,1 99 0 0 360 0 1090,1
26 La capilla 04-05-2026 06:15 9,1 99 0 0 360 0 1090,1
25 La capilla 04-05-2026 06:00 9 99 0 0 360 0 1090
24 La capilla 04-05-2026 05:45 9 99 0 0 360 0 1089,8
23 La capilla 04-05-2026 05:30 9 99 0 0 360 0 1089,9
22 La capilla 04-05-2026 05:15 8,9 99 0 0 360 0 1090
21 La capilla 04-05-2026 05:00 8,9 100 0 0 360 0 1090,2
20 La capilla 04-05-2026 04:45 8,8 99 0 0 360 0 1090,2
19 La capilla 04-05-2026 04:30 8,8 99 0 0 360 0 1090,2
18 La capilla 04-05-2026 04:15 8,8 99 0 0 360 0 1090
17 La capilla 04-05-2026 04:00 8,8 99 0 0 360 0 1089,8
16 La capilla 04-05-2026 03:45 8,8 99 0 0 360 0 1090,2
15 La capilla 04-05-2026 03:30 8,7 99 0,2 0 360 0 1090,5
14 La capilla 04-05-2026 03:15 8,7 99 0 0 360 0 1090,9
13 La capilla 04-05-2026 03:00 8,7 99 0,2 0 360 0 1090,8
12 La capilla 04-05-2026 02:45 8,7 99 0 0 360 0 1091,1
11 La capilla 04-05-2026 02:30 8,6 99 0,2 0 360 0 1091,4
10 La capilla 04-05-2026 02:15 8,6 99 0 0 360 0 1091,3
9 La capilla 04-05-2026 02:00 8,6 99 0,2 0 360 0 1091,5
8 La capilla 04-05-2026 01:45 8,6 99 0 0 360 0 1091,6
7 La capilla 04-05-2026 01:30 8,6 99 0,2 0 360 0 1091,7
6 La capilla 04-05-2026 01:15 8,6 99 0,2 0 360 0 1092,2
5 La capilla 04-05-2026 01:00 8,6 99 0 0 360 0 1092,5
4 La capilla 04-05-2026 00:45 8,5 99 0 0 360 0 1092,7
3 La capilla 04-05-2026 00:30 8,4 99 0,2 0 360 0 1092,6
2 La capilla 04-05-2026 00:15 8,4 99 0,2 0 360 0 1092,6
1 La capilla 04-05-2026 00:00 8,4 99 0 0 360 0 1092,5